DECAYED

STARLINK-2369, 47909 (Decayed)

Orbit data source: Space-Track

STARLINK-2369, 47909 was a payload satellite owned by SpaceX/Seattle (US) in LEO that was launched on Sun, 14 Mar 2021 UTC via an FALCON 9 launch vehicle from the Air Force Eastern Test Range (AFETR). Payload-class satellites include a variety of spacecraft equipped with specific instruments for various scientific and technological missions. These include communications satellites like Starlink; space stations such as the ISS; scientific satellites like the Hubble; Earth observation satellites from companies like Planet Labs, Umbra, and HawkEye 360; GPS; miniature CubeSats for education and research; and military/defense satellites.

Not visible in the next 10 days
Identifier
47909, 2021-021BB
Orbit
Decayed
Country
Flag of USUS
Related business
Manufacturer
SpaceX/Seattle
Mission
Decayed Commercial Communications
Bus & Motor
STARLINK, Unknown motor
Mass
260 kg wet, ~248 kg dry
Launch date (UTC)
2021-03-14 (5 years ago)
Launch vehicle
FALCON 9
Launch site
Air Force Eastern Test Range (AFETR)
Object type
Payload
Rocket body
Debris
Shape & HBR
Box + 1 Pan, 10.1 m
Radar Cross Section
13.562 m², Large (>1 m²)

Expand to show TLE details & history
Last TLE update: 1 year ago

TLE from 1 year ago
0 STARLINK-2369
1 47909U 21021BB  25027.10277251  .12880790  12423-4  74459-3 0  9999
2 47909  53.0358 263.1717 0004595 278.1086 206.6722 16.41825448214901
Epoch: 2025-01-27T02:27Z
TLE epoch observation values (Epoch: 2025-01-27T02:27:59.544Z)
Latitude
41.168°
Longitude
-121.32065°
Altitude
167.437 km
Speed
7.81 km/s
True Right ascension
02h 49m 13s
True Declination
40° 58' 56"
Sunlit
Object was in full shadow at epoch
Visualization orbit readout
Latitude
Unknown
Longitude
Unknown
Altitude
Unknown
Speed
Unknown
Apparent Right ascension
Unknown
Apparent Declination
Unknown
Sunlit
N/A
Visualization observer readout
Local Sidereal Time
21:27:38
Azimuth
Unknown
Elevation
Unknown
Doppler factor
Unknown
Orbital elements
Apogee altitude
164.245 km
Perigee altitude
158.236 km
Semi-major axis
6,539.377 km
Eccentricity
0.00046
Inclination
53.0358°
RAAN
263.1717°
Arg. of periapsis
278.1086°
True anomaly
206.64858°
Mean anomaly
206.6722°
Eccentric anomaly
206.66039°
Mean motion
4.10429 °/min
Orbital period
87.71 mins
BSTAR
0.00074459
Loading maneuver chart data...
Computing Atmospheric mass density...

Documentation

Showing up to 5 results
|